User: anonymous   Login
Location: Oberstdorf
(47.4188°N, 10.2969°E)
Time: 10:11:20
(UTC+01:00)
Language:

N. Korean satellite - Orbit

View from above orbital plane
View from above orbital plane
View from above satellite
View from above satellite

Ground track
Ground track

The orbit data is extracted from the following two-line orbital elements,

1 39026U 12072A   19022.93384093 +.00000964 +00000-0 +37988-4 0  9993
2 39026 097.2099 030.8922 0036788 262.6203 097.0855 15.27393013339132
Epoch (UTC): 22 January 2019 22:24:43
Eccentricity: 0.0036788
inclination: 97.2099°
perigee height: 458 km
apogee height: 509 km
right ascension of ascending node: 30.8922°
argument of perigee: 262.6203°
revolutions per day: 15.27393013
mean anomaly at epoch: 97.0855°
orbit number at epoch: 33913

The dashed part of the orbit path shows where the satellite is in the earth's shadow,  

DLR